Location: Bacharowice
(49.9333°N, 19.5833°E)
Time: 23:39:54
(UTC+00:00)

Cosmos 1898 Rocket - Pass Details

Date: 11 May 2021
Orbit: 753 x 784 km, 74.0° (Epoch: 21 June)

Event Time Altitude Azimuth Distance (km) Brightness Sun altitude
Exits shadow 21:07:18 34° 181° (S) 1,265 4.1 -19.1°
Maximum altitude 21:09:35 67° 109° (ESE) 847 3.5 -19.2°
Drops below altitude 10° 21:14:52 10° 28° (NNE) 2,350 6.6 -19.5°
Sets 21:17:17 0° 26° (NNE) 3,284 7.4 -19.6°
